User: anonymous   Login
Location: Unspecified
(0.0000°N, 0.0000°E)
Time: 03:21:19
(UTC+00:00)
Language:

CORVUS BC1 - Orbit

View from above orbital plane
View from above orbital plane
View from above satellite
View from above satellite

Ground track
Ground track

The orbit data is extracted from the following two-line orbital elements,

1 42847U 17042Y   18172.27533729 +.00000323 +00000-0 +37247-4 0  9991
2 42847 097.5971 075.0518 0009285 173.0199 187.1151 14.91920856050975
Epoch (UTC): 21 June 2018 06:36:29
Eccentricity: 0.0009285
inclination: 97.5971°
perigee height: 585 km
apogee height: 598 km
right ascension of ascending node: 75.0518°
argument of perigee: 173.0199°
revolutions per day: 14.91920856
mean anomaly at epoch: 187.1151°
orbit number at epoch: 5097

The dashed part of the orbit path shows where the satellite is in the earth's shadow,  

DLR